Overview Statistics Trail Chart Weather Telemetry Raw packets
 

This is the latest recevied weather packets stored in our database for station/object KQ4WWD. If no packets are shown the sender has not sent any weather packets the latest 10 day(s).

<< 9 10 11 12 13 14 15 >>
Time Temp. Humidity Pressure Rain* Wind** Luminosity Snow
1788544591 35° C 66% 1014.6 hPa 0 mm - 261 W/m² -
1788544290 35° C 65% 1014.4 hPa 0 mm - 814 W/m² -
1788543990 34.44° C 66% 1014.4 hPa 0 mm - 248 W/m² -
1788543686 35° C 65% 1014.5 hPa 0 mm - 602 W/m² -
1788543381 34.44° C 66% 1014.6 hPa 0 mm - 727 W/m² -
1788543077 33.89° C 66% 1014.5 hPa 0 mm - 196 W/m² -
1788542773 34.44° C 68% 1014.6 hPa 0 mm - 200 W/m² -
1788542472 33.89° C 68% 1014.8 hPa 0 mm - 233 W/m² -
1788542167 33.89° C 68% 1015 hPa 0 mm - 809 W/m² -
1788541863 33.33° C 69% 1015 hPa 0 mm - 751 W/m² -
1788541558 33.33° C 69% 1015.1 hPa 0 mm - 783 W/m² -
1788541254 33.33° C 70% 1015 hPa 0 mm - 760 W/m² -
1788540953 33.89° C 69% 1015.1 hPa 0 mm - 715 W/m² -
1788540652 33.33° C 71% 1015.2 hPa 0 mm - 720 W/m² -
1788540347 34.44° C 67% 1015.3 hPa 0 mm - 755 W/m² -
1788540043 32.78° C 70% 1015.4 hPa 0 mm - 745 W/m² -
1788539743 33.89° C 69% 1015.3 hPa 0 mm - 711 W/m² -
1788539438 33.33° C 70% 1015.5 hPa 0 mm - 705 W/m² -
1788539132 32.78° C 72% 1015.5 hPa 0 mm - 701 W/m² -
1788538829 32.22° C 73% 1015.6 hPa 0 mm - 517 W/m² -
1788538529 32.78° C 73% 1015.6 hPa 0 mm - 230 W/m² -
1788538235 31.67° C 76% 1015.7 hPa 0 mm - 762 W/m² -
1788537919 31.67° C 77% 1015.7 hPa 0 mm - 175 W/m² -
1788537616 31.67° C 76% 1016.1 hPa 0 mm - 201 W/m² -
1788537314 31.67° C 76% 1016.2 hPa 0 mm - 755 W/m² -

* Rain latest hour (hover to see other rain measurements)
** Current wind speed in m/s (hover to see current wind gust speed)